STARLINK-35099

Last updated on Mon Oct 20 2025 00:02:06 GMT+0000 (Coordinated Universal Time)

1 65735U 25216B 25292.23936128 .00134084 00000+0 23726-2 0 9997 2 65735 53.1585 272.2742 0001656 107.3977 252.7213 15.49370728 4825
UTC large
Height (km)
Speed (km/s)
/
Latitude / Longitude
Inclination (degrees)
Orbital Period (minutes)
Azimuth
Elevation
Range (km)
Doppler Factor

Next 0 passes for location: London (51.5072 / 0.1276)

Sorry there are no passes over London.